This is the latest recevied weather packets stored in our database for station/object K4XP. If no packets are shown the sender has not sent any weather packets the latest 10 day(s).
| Time | Temp. | Humidity | Pressure | Rain* | Wind** | Luminosity | Snow |
|---|---|---|---|---|---|---|---|
| 1787967330 | 21.11° C | 92% | 1019 hPa | 0 mm | - | - | - |
| 1787967030 | 21.11° C | 92% | 1018.9 hPa | 0 mm | - | - | - |
| 1787966728 | 21.11° C | 92% | 1018.7 hPa | 0 mm | - | - | - |
| 1787966448 | 21.11° C | 92% | 1018.7 hPa | 0 mm | - | - | - |
| 1787966140 | 21.11° C | 92% | 1018.5 hPa | 0 mm | - | - | - |
| 1787965840 | 21.11° C | 92% | 1018.4 hPa | 0 mm | - | - | - |
| 1787965533 | 21.11° C | 92% | 1018.4 hPa | 0.25 mm | - | - | - |
| 1787965233 | 21.11° C | 92% | 1018.2 hPa | 0.25 mm | - | - | - |
| 1787964932 | 21.11° C | 92% | 1018 hPa | 0.51 mm | - | - | - |
| 1787964626 | 21.11° C | 92% | 1017.9 hPa | 0.51 mm | - | - | - |
| 1787964331 | 21.11° C | 92% | 1018 hPa | 0.76 mm | - | - | - |
| 1787964038 | 21.11° C | 92% | 1018 hPa | 1.02 mm | - | - | - |
| 1787963738 | 21.11° C | 92% | 1018 hPa | 1.27 mm | - | - | - |
| 1787963442 | 21.11° C | 92% | 1017.8 hPa | 2.03 mm | - | - | - |
| 1787963132 | 21.11° C | 92% | 1017.6 hPa | 2.54 mm | - | - | - |
| 1787962830 | 21.11° C | 92% | 1017.5 hPa | 2.54 mm | - | - | - |
| 1787962531 | 21.11° C | 92% | 1017.5 hPa | 2.54 mm | - | - | - |
| 1787962226 | 21.11° C | 92% | 1017.6 hPa | 2.54 mm | - | - | - |
| 1787961924 | 21.11° C | 92% | 1017.7 hPa | 2.54 mm | - | - | - |
| 1787961623 | 21.11° C | 92% | 1017.7 hPa | 3.56 mm | - | - | - |
| 1787961323 | 21.11° C | 92% | 1017.7 hPa | 4.57 mm | - | - | - |
| 1787961035 | 21.11° C | 92% | 1017.7 hPa | 5.59 mm | - | - | - |
| 1787960741 | 21.11° C | 91% | 1017.7 hPa | 6.6 mm | - | - | - |
| 1787960436 | 21.11° C | 91% | 1017.8 hPa | 7.87 mm | - | - | - |
| 1787960134 | 21.11° C | 91% | 1017.9 hPa | 9.4 mm | - | - | - |
* Rain latest hour (hover to see other rain measurements)
** Current wind speed in m/s (hover to see current wind gust speed)